Weather History for Thermopolis, WY

Change the Weather History Date:

Sunday, December 1, 2013

  Actual Average (KWRL) Record (KWRL)
Temperature  
Mean Temperature 36 °F 22 °F  
Max Temperature 41 °F 35 °F 67 °F (1995)
Min Temperature 32 °F 9 °F -24 °F (1985)
Degree Days  
Heating Degree Days 28 43  
Month to date heating degree days 43  
Since 1 July heating degree days 1935  
Cooling Degree Days 0 0  
Month to date cooling degree days 0  
Year to date cooling degree days 535  
Moisture  
Dew Point 22 °F    
Average Humidity 60    
Maximum Humidity 69    
Minimum Humidity 49    
Precipitation  
Precipitation 0.00 in 0.01 in 0.20 in (1964)
Month to date precipitation 0.01  
Year to date precipitation 7.35  
Sea Level Pressure  
Sea Level Pressure 30.03 in    
Wind  
Wind Speed 15 mph (SSW)    
Max Wind Speed 47 mph    
Max Gust Speed 58 mph    
Visibility 10 miles    
Events      
T = Trace of Precipitation, MM = Missing Value Source: NWS Daily Summary

Daily Weather History Graph

Daily Weather History Graph

Search for Another Location

Airport:

Trip Planner

Search our weather history database for the weather conditions in past years. The results will help you decide how hot, cold, wet, or windy it might be!

Date:

Astronomy

Dec. 01, 2013 Rise Set
Actual Time 7:26 AM MST 4:37 PM MST
Civil Twilight 6:54 AM MST 5:09 PM MST
Nautical Twilight 6:18 AM MST 5:45 PM MST
Astronomical Twilight 5:44 AM MST 6:19 PM MST
Moon 5:45 AM MST (12/1) 3:52 PM MST (12/1)
Length of Visible Light 10h 15m
Length of Day
9h 11m
Waning Crescent, 2% of the Moon is Illuminated
Dec 1
Waning Crescent
Dec 2
New
Dec 9
First Quarter
Dec 17
Full
Dec 25
Last Quarter

Hourly Weather History & Observations

Time (MST) Temp. Windchill Dew Point Humidity Pressure Visibility Wind Dir Wind Speed Gust Speed Precip Events Conditions
12:15 AM 33.8 °F 30.8 °F 21.2 °F 60% 30.20 in 10.0 mi SSE 3.5 mph - N/A   Unknown
12:35 AM 33.8 °F 29.6 °F 21.2 °F 60% 30.18 in 10.0 mi SE 4.6 mph - N/A   Unknown
12:55 AM 33.8 °F 27.0 °F 21.2 °F 60% 30.18 in 10.0 mi SE 8.1 mph - N/A   Unknown
1:15 AM 32.0 °F 24.2 °F 21.2 °F 64% 30.18 in 10.0 mi SE 9.2 mph - N/A   Unknown
1:35 AM 32.0 °F 24.2 °F 21.2 °F 64% 30.17 in 10.0 mi SE 9.2 mph - N/A   Unknown
1:55 AM 32.0 °F 24.8 °F 21.2 °F 64% 30.16 in 10.0 mi SSE 8.1 mph - N/A   Unknown
2:15 AM 32.0 °F 25.6 °F 21.2 °F 64% 30.16 in 10.0 mi SSE 6.9 mph - N/A   Unknown
2:35 AM 32.0 °F 24.8 °F 21.2 °F 64% 30.17 in 10.0 mi SSW 8.1 mph - N/A   Unknown
2:55 AM 33.8 °F 25.8 °F 21.2 °F 60% 30.18 in 10.0 mi SW 10.4 mph - N/A   Unknown
3:15 AM 33.8 °F 24.8 °F 19.4 °F 56% 30.17 in 10.0 mi WSW 12.7 mph - N/A   Unknown
3:35 AM 33.8 °F 23.5 °F 19.4 °F 56% 30.16 in 10.0 mi WSW 16.1 mph - N/A   Unknown
3:55 AM 33.8 °F 24.8 °F 19.4 °F 56% 30.16 in 10.0 mi South 12.7 mph - N/A   Unknown
4:15 AM 32.0 °F 21.2 °F 21.2 °F 64% 30.15 in 10.0 mi SSW 16.1 mph 21.9 mph N/A   Unknown
4:35 AM 33.8 °F 23.9 °F 21.2 °F 60% 30.15 in 10.0 mi WSW 15.0 mph 19.6 mph N/A   Unknown
4:55 AM 35.6 °F 26.2 °F 19.4 °F 52% 30.15 in 10.0 mi SW 15.0 mph - N/A   Unknown
5:15 AM 33.8 °F 23.2 °F 21.2 °F 60% 30.15 in 10.0 mi WSW 17.3 mph 25.3 mph N/A   Unknown
5:35 AM 33.8 °F 26.4 °F 21.2 °F 60% 30.15 in 10.0 mi WSW 9.2 mph - N/A   Unknown
5:55 AM 32.0 °F 23.0 °F 21.2 °F 64% 30.14 in 10.0 mi South 11.5 mph - N/A   Unknown
6:15 AM 32.0 °F 22.5 °F 23.0 °F 69% 30.14 in 10.0 mi SSW 12.7 mph 21.9 mph N/A   Unknown
6:35 AM 32.0 °F 21.6 °F 23.0 °F 69% 30.14 in 10.0 mi SSW 15.0 mph 24.2 mph N/A   Unknown
6:55 AM 32.0 °F 21.6 °F 23.0 °F 69% 30.14 in 10.0 mi SW 15.0 mph 19.6 mph N/A   Unknown
7:15 AM 33.8 °F 23.2 °F 23.0 °F 65% 30.15 in 10.0 mi SW 17.3 mph - N/A   Unknown
7:35 AM 32.0 °F 22.1 °F 23.0 °F 69% 30.14 in 10.0 mi SW 13.8 mph - N/A   Unknown
7:55 AM 32.0 °F 24.8 °F 21.2 °F 64% 30.14 in 10.0 mi SSW 8.1 mph - N/A   Unknown
8:15 AM 32.0 °F 22.1 °F 23.0 °F 69% 30.13 in 10.0 mi SSW 13.8 mph - N/A   Unknown
8:35 AM 33.8 °F 22.2 °F 23.0 °F 65% 30.12 in 10.0 mi SSW 20.7 mph 28.8 mph N/A   Unknown
8:55 AM 33.8 °F 20.8 °F 23.0 °F 65% 30.10 in 10.0 mi SW 26.5 mph 33.4 mph N/A   Unknown
9:15 AM 33.8 °F 21.6 °F 23.0 °F 65% 30.11 in 10.0 mi SSW 23.0 mph 32.2 mph N/A   Unknown
9:35 AM 35.6 °F 23.7 °F 23.0 °F 60% 30.10 in 10.0 mi SSW 24.2 mph 33.4 mph N/A   Unknown
9:55 AM 33.8 °F 22.2 °F 23.0 °F 65% 30.10 in 10.0 mi SW 20.7 mph 27.6 mph N/A   Unknown
10:15 AM 33.8 °F 22.8 °F 23.0 °F 65% 30.11 in 10.0 mi SSW 18.4 mph 29.9 mph N/A   Unknown
10:35 AM 32.0 °F 21.6 °F 23.0 °F 69% 30.10 in 10.0 mi SSW 15.0 mph 24.2 mph N/A   Unknown
10:55 AM 32.0 °F 22.1 °F 23.0 °F 69% 30.09 in 10.0 mi South 13.8 mph 18.4 mph N/A   Unknown
11:15 AM 33.8 °F 23.2 °F 23.0 °F 65% 30.07 in 10.0 mi SSE 17.3 mph 24.2 mph N/A   Unknown
11:35 AM 32.0 °F 23.6 °F 23.0 °F 69% 30.06 in 10.0 mi SE 10.4 mph 17.3 mph N/A   Unknown
11:55 AM 33.8 °F 24.8 °F 23.0 °F 65% 30.05 in 10.0 mi South 12.7 mph - N/A   Unknown
12:15 PM 33.8 °F 27.0 °F 23.0 °F 65% 30.04 in 10.0 mi South 8.1 mph - N/A   Unknown
12:35 PM 35.6 °F 25.9 °F 23.0 °F 60% 30.03 in 10.0 mi SSW 16.1 mph - N/A   Unknown
12:55 PM 33.8 °F 26.4 °F 23.0 °F 65% 30.02 in 10.0 mi SSE 9.2 mph - N/A   Unknown
1:15 PM 35.6 °F 26.6 °F 23.0 °F 60% 30.00 in 10.0 mi South 13.8 mph 21.9 mph N/A   Unknown
1:35 PM 33.8 °F 27.0 °F 23.0 °F 65% 29.98 in 10.0 mi SE 8.1 mph - N/A   Unknown
1:55 PM 33.8 °F 25.3 °F 23.0 °F 65% 29.95 in 10.0 mi SE 11.5 mph 18.4 mph N/A   Unknown
2:15 PM 33.8 °F 25.8 °F 23.0 °F 65% 29.95 in 10.0 mi SE 10.4 mph - N/A   Unknown
2:35 PM 35.6 °F 29.2 °F 23.0 °F 60% 29.94 in 10.0 mi SE 8.1 mph - N/A   Unknown
2:55 PM 35.6 °F 26.2 °F 23.0 °F 60% 29.94 in 10.0 mi South 15.0 mph 19.6 mph N/A   Unknown
3:15 PM 35.6 °F 26.6 °F 23.0 °F 60% 29.93 in 10.0 mi South 13.8 mph 21.9 mph N/A   Unknown
3:35 PM 35.6 °F 24.2 °F 23.0 °F 60% 29.92 in 10.0 mi SSW 21.9 mph 32.2 mph N/A   Unknown
3:55 PM 35.6 °F 23.2 °F 23.0 °F 60% 29.92 in 10.0 mi SSW 26.5 mph 34.5 mph N/A   Unknown
4:15 PM 35.6 °F 23.2 °F 23.0 °F 60% 29.91 in 10.0 mi SSW 26.5 mph 38.0 mph N/A   Unknown
4:35 PM 37.4 °F 24.4 °F 23.0 °F 56% 29.90 in 10.0 mi SW 33.4 mph 44.9 mph N/A   Unknown
4:55 PM 37.4 °F 24.6 °F 21.2 °F 52% 29.90 in 10.0 mi SW 32.2 mph 55.2 mph N/A   Unknown
5:15 PM 39.2 °F 24.9 °F 21.2 °F 49% 29.88 in 10.0 mi SW 47.2 mph 57.5 mph N/A   Unknown
5:35 PM 39.2 °F 26.0 °F 21.2 °F 49% 29.88 in 10.0 mi SW 39.1 mph 55.2 mph N/A   Unknown
5:55 PM 39.2 °F 26.3 °F 21.2 °F 49% 29.89 in 10.0 mi SW 36.8 mph 51.8 mph N/A   Unknown
6:15 PM 39.2 °F 26.8 °F 21.2 °F 49% 29.90 in 10.0 mi SW 33.4 mph 44.9 mph N/A   Unknown
6:35 PM 37.4 °F 24.0 °F 21.2 °F 52% 29.90 in 10.0 mi SW 35.7 mph 43.7 mph N/A   Unknown
6:55 PM 37.4 °F 25.0 °F 21.2 °F 52% 29.89 in 10.0 mi SW 29.9 mph 46.0 mph N/A   Unknown
7:15 PM 37.4 °F 25.0 °F 23.0 °F 56% 29.88 in 10.0 mi SW 29.9 mph 36.8 mph N/A   Unknown
7:35 PM 37.4 °F 25.2 °F 23.0 °F 56% 29.88 in 10.0 mi SW 28.8 mph 34.5 mph N/A   Unknown
7:55 PM 37.4 °F 25.6 °F 23.0 °F 56% 29.89 in 10.0 mi SW 26.5 mph 31.1 mph N/A   Unknown
8:15 PM 37.4 °F 25.9 °F 23.0 °F 56% 29.89 in 10.0 mi SW 25.3 mph 33.4 mph N/A   Unknown
8:35 PM 37.4 °F 26.6 °F 23.0 °F 56% 29.89 in 10.0 mi SW 21.9 mph 29.9 mph N/A   Unknown
8:55 PM 37.4 °F 26.9 °F 23.0 °F 56% 29.89 in 10.0 mi SW 20.7 mph 31.1 mph N/A   Unknown
9:15 PM 37.4 °F 25.4 °F 23.0 °F 56% 29.89 in 10.0 mi SW 27.6 mph 39.1 mph N/A   Unknown
9:35 PM 37.4 °F 25.9 °F 23.0 °F 56% 29.90 in 10.0 mi SW 25.3 mph 33.4 mph N/A   Unknown
9:55 PM 39.2 °F 28.5 °F 23.0 °F 52% 29.90 in 10.0 mi SW 24.2 mph 33.4 mph N/A   Unknown
10:15 PM 39.2 °F 28.0 °F 23.0 °F 52% 29.89 in 10.0 mi WSW 26.5 mph 33.4 mph N/A   Unknown
10:35 PM 39.2 °F 28.0 °F 24.8 °F 56% 29.89 in 10.0 mi WSW 26.5 mph 38.0 mph N/A   Unknown
10:55 PM 39.2 °F 26.8 °F 26.6 °F 61% 29.88 in 10.0 mi SW 33.4 mph 47.2 mph N/A   Unknown
11:15 PM 39.2 °F 27.2 °F 26.6 °F 61% 29.88 in 10.0 mi SW 31.1 mph 41.4 mph N/A   Unknown
11:35 PM 41.0 °F 27.9 °F 26.6 °F 57% 29.88 in 10.0 mi WSW 43.7 mph 51.8 mph N/A   Unknown
11:55 PM 39.2 °F 27.0 °F 26.6 °F 61% 29.89 in 10.0 mi WSW 32.2 mph 43.7 mph N/A   Unknown